[[{"header":{"parameterUnit":"m.s-1","parameterCategory":1,"la1":30.2991,"la2":30.254,"lo1":-89.0895,"lo2":-89.0444,"dy":0.0017,"dx":0.0017,"nx":28,"ny":28,"refTime":"2024-10-18T21:00:00:Z","depth":0,"parameterNumber":2,"parameterNumberName":"U-component_of_WINDS"},"data":[0,0,0,0,0,0,0,0,0,0,0,0,0,0,0,0,0,0,0,0,0,0,0,0,0,0,0,0,0,0,0,0,0,0,0,0,0,0,0,0,0,0,0,0,0,0,0,0,0,0,0,0,0,0,0,0,0,0,-5.0669,-5.0669,0,-5.0663,-5.0663,-5.0663,-5.0541,-5.0538,-5.0535,-5.0532,-5.0525,-5.0528,-5.053,0,0,0,0,0,0,0,0,0,0,0,0,0,-5.0575,-5.0578,-5.0669,-5.0669,-5.0669,-5.0663,-5.0663,-5.0663,-5.0542,-5.0538,-5.0534,-5.0531,-5.0524,-5.0527,-5.0531,0,0,0,0,0,0,0,0,0,0,0,0,0,-5.0597,-5.0578,-5.0669,-5.0608,-5.0602,-5.0663,-5.0663,-5.0663,-5.0543,-5.0538,-5.0533,-5.0529,-5.0523,-5.0527,-5.0531,-5.0649,0,0,-5.0543,-5.0545,0,0,0,0,0,0,0,0,-5.0596,-5.0601,-5.0617,-5.0612,-5.0606,-5.0598,-5.0627,-5.0658,-5.0544,-5.0565,-5.0532,-5.0527,-5.0553,-5.0554,-5.0563,-5.0649,-5.0649,-5.0544,-5.0546,-5.0548,-5.0549,0,0,0,0,0,0,0,-5.0595,-5.0601,-5.0667,-5.0617,-5.0611,-5.0581,-5.0579,-5.0632,-5.0585,-5.0563,-5.0554,-5.0555,-5.0549,-5.056,-5.0562,-5.0649,-5.0544,-5.0547,-5.055,-5.0551,-5.0831,-5.0836,0,0,0,0,0,0,-5.0602,-5.06,-5.0667,-5.0666,-5.059,-5.0586,-5.0584,-5.0606,-5.0585,-5.0577,-5.0559,-5.055,-5.0555,-5.0558,-5.0562,-5.0699,-5.0548,-5.0552,-5.0554,-5.0826,-5.0832,-5.0838,0,0,0,0,0,0,-5.06,-5.0609,-5.0667,-5.0631,-5.0636,-5.0593,-5.0618,-5.0608,-5.0618,-5.0582,-5.0573,-5.0579,-5.0552,-5.0556,-5.0629,-5.0697,-5.0554,-5.0557,-5.082,-5.0828,-5.0835,-5.0974,0,0,0,0,0,0,-5.0598,-5.0609,-5.0654,-5.0633,-5.0638,-5.0735,-5.0622,-5.0611,-5.0626,-5.0613,-5.0598,-5.0591,-5.0548,-5.0623,-5.0633,-5.07,-5.056,-5.0814,-5.0824,-5.0833,-5.0963,-5.0985,-5.1004,0,0,0,0,0,-5.0595,-5.0693,-5.0657,-5.0666,-5.0693,-5.0739,-5.0742,-5.0692,-5.0632,-5.0676,-5.0653,-5.0591,-5.0688,-5.0632,-5.0641,-5.0711,-5.081,-5.0821,-5.0832,-5.0954,-5.0981,-5.1004,0,0,0,0,0,0,-5.0722,-5.0689,-5.0648,-5.0742,-5.0745,-5.0718,-5.0772,-5.0722,-5.0741,-5.0728,-5.0665,-5.0662,-5.0745,-5.0735,-5.0673,-5.0824,-5.0738,-5.0752,-5.0827,-5.0853,-5.0873,-5.0873,-5.0564,0,0,0,0,0,-5.0762,-5.0802,-5.077,-5.0856,-5.0859,-5.0816,-5.0834,-5.0795,-5.0795,-5.0795,-5.0777,-5.0778,-5.0809,-5.083,-5.0857,-5.0962,-5.0956,-5.1014,-5.1035,-5.1052,-5.1064,-5.1119,-5.1144,-5.0875,-5.0875,-5.0874,0,0,-5.0842,-5.0829,-5.0858,-5.0881,-5.0878,-5.0921,-5.0818,-5.0867,-5.0898,-5.0802,-5.0869,-5.0857,-5.0854,-5.0944,-5.0982,-5.0938,-5.1137,-5.1066,-5.108,-5.1083,-5.1133,-5.1158,-5.1181,-5.0882,-5.0881,-5.088,0,0,-5.1011,-5.1006,-5.1076,-5.1076,-5.1073,-5.1044,-5.1061,-5.1043,-5.1031,-5.1098,-5.1027,-5.1063,-5.1117,-5.1118,-5.1126,-5.1298,-5.1241,-5.1308,-5.1415,-5.1469,-5.149,-5.1509,-5.1569,-5.1592,-5.132,-5.1321,-5.1321,0,-5.1111,-5.1173,-5.1119,-5.1173,-5.1185,-5.1102,-5.1173,-5.1175,-5.1181,-5.1191,-5.1142,-5.1209,-5.1201,-5.129,-5.1332,-5.1341,-5.1358,-5.1309,-5.1492,-5.151,-5.1526,-5.1583,-5.1606,-5.1329,-5.1328,-5.1327,-5.1326,0,-5.1297,-5.1341,-5.1398,-5.1407,-5.1425,-5.1488,-5.1443,-5.1469,-5.1429,-5.1406,-5.1475,-5.1463,-5.1486,-5.1504,-5.1466,-5.1588,-5.156,-5.1503,-5.1415,-5.1561,-5.1613,-5.1635,-5.134,-5.1338,-5.1335,-5.1333,0,0,-5.1543,-5.1522,-5.1544,-5.1547,-5.1539,-5.1571,-5.1631,-5.1653,-5.1676,-5.1684,-5.1731,-5.178,-5.1727,-5.1736,-5.1697,-5.1745,-5.1881,-5.1681,-5.168,-5.1718,-5.2014,-5.2057,-5.2083,-5.1844,-5.1848,-5.1851,-5.2014,0,-5.1706,-5.1805,-5.1759,-5.1864,-5.1904,-5.1826,-5.1877,-5.1877,-5.1858,-5.1888,-5.1866,-5.1901,-5.1828,-5.1833,-5.1877,-5.1855,-5.1939,-5.1843,-5.1887,-5.1889,-5.1889,-5.211,-5.2156,-5.231,-5.2034,-5.2038,-5.204,0,-5.1908,-5.1925,-5.2034,-5.2019,-5.2034,-5.2081,-5.2098,-5.2129,-5.2128,-5.211,-5.2121,-5.2071,-5.2128,-5.2042,-5.2119,-5.2055,-5.207,-5.2062,-5.2067,-5.2068,-5.1973,-5.2117,-5.2358,-5.2381,-5.2072,-5.2069,-5.2067,0,-5.2077,-5.2126,-5.2198,-5.2203,-5.2187,-5.2222,-5.2217,-5.2212,-5.2229,-5.2244,-5.2254,-5.2276,-5.2288,-5.2306,-5.2263,-5.2205,-5.2346,-5.2257,-5.2332,-5.2334,-5.2365,-5.2363,-5.2611,-5.2377,-5.2377,-5.2376,-5.2376,0,-5.2262,-5.2332,-5.2273,-5.2318,-5.2393,-5.234,-5.2416,-5.2402,-5.2399,-5.2438,-5.2373,-5.2411,-5.2353,-5.2387,-5.2354,-5.2423,-5.2429,-5.2415,-5.2406,-5.2421,-5.2423,-5.2429,-5.2417,-5.2382,-5.2381,-5.238,-5.2379,0,-5.2462,-5.2426,-5.2499,-5.2479,-5.2475,-5.2532,-5.2514,-5.2554,-5.253,-5.2582,-5.259,-5.2553,-5.2588,-5.2548,-5.2581,-5.2559,-5.2652,-5.2627,-5.2652,-5.2645,-5.2723,-5.2716,-5.2982,-5.3014,-5.2761,-5.2764,-5.2766,0,-5.2583,-5.2634,-5.262,-5.2642,-5.2642,-5.2678,-5.2695,-5.2645,-5.2665,-5.2669,-5.2708,-5.2739,-5.276,-5.2821,-5.2796,-5.2821,-5.2795,-5.2887,-5.2798,-5.2812,-5.2796,-5.2793,-5.2798,-5.2905,-5.2908,-5.291,-5.2912,0,-5.28,-5.278,-5.2807,-5.2829,-5.2851,-5.2866,-5.2875,-5.2897,-5.2845,-5.2871,-5.2907,-5.2924,-5.2958,-5.2989,-5.3006,-5.3001,-5.2949,-5.2941,-5.296,-5.2975,-5.2987,-5.2981,-5.2701,-5.2935,-5.2932,-5.2931,-5.293,-5.2929,-5.2963,-5.3006,-5.3002,-5.3035,-5.3037,-5.3048,-5.3084,-5.3066,-5.3095,-5.3118,-5.3087,-5.3132,-5.313,-5.3149,-5.3149,-5.3183,-5.3144,-5.3171,-5.3178,-5.3186,-5.3197,-5.2983,-5.3187,-5.3186,-5.3185,-5.3185,-5.3184,0,-5.3176,-5.3171,-5.3201,-5.3217,-5.3243,-5.3193,-5.3201,-5.3226,-5.3266,-5.3269,-5.3292,-5.3334,-5.3364,-5.3342,-5.3367,-5.3399,-5.3375,-5.3407,-5.3404,-5.3403,-5.3231,-5.3212,-5.3426,-5.3426,-5.3426,-5.3426,-5.3425,-5.3425,-5.329,-5.3359,-5.3339,-5.3409,-5.3402,-5.3446,-5.3455,-5.3465,-5.3467,-5.3517,-5.3541,-5.3527,-5.3521,-5.3545,-5.357,-5.3563,-5.3575,-5.3616,-5.36,-5.3439,-5.3415,-5.3393,-5.3374,-5.3619,-5.3619,-5.3769,-5.3771,-5.3772]},{"header":{"parameterUnit":"m.s-1","parameterCategory":1,"la1":30.2991,"la2":30.254,"lo1":-89.0895,"lo2":-89.0444,"dy":0.0017,"dx":0.0017,"nx":28,"ny":28,"refTime":"2024-10-18T21:00:00:Z","depth":0,"parameterNumber":3,"parameterNumberName":"V-component_of_WINDS"},"data":[0,0,0,0,0,0,0,0,0,0,0,0,0,0,0,0,0,0,0,0,0,0,0,0,0,0,0,0,0,0,0,0,0,0,0,0,0,0,0,0,0,0,0,0,0,0,0,0,0,0,0,0,0,0,0,0,0,0,-2.1658,-2.1658,0,-2.1729,-2.173,-2.1731,-2.1713,-2.1712,-2.171,-2.1709,-2.178,-2.1784,-2.1787,0,0,0,0,0,0,0,0,0,0,0,0,0,-2.1504,-2.1507,-2.1658,-2.1659,-2.1659,-2.1729,-2.173,-2.1731,-2.1713,-2.1712,-2.171,-2.1708,-2.1779,-2.1783,-2.1787,0,0,0,0,0,0,0,0,0,0,0,0,0,-2.1572,-2.1508,-2.1657,-2.1659,-2.166,-2.1729,-2.173,-2.1731,-2.1714,-2.1712,-2.1709,-2.1708,-2.1778,-2.1783,-2.1788,-2.1859,0,0,-2.1802,-2.1804,0,0,0,0,0,0,0,0,-2.1568,-2.1578,-2.1658,-2.1659,-2.166,-2.171,-2.1702,-2.1774,-2.1714,-2.1693,-2.1709,-2.1706,-2.1759,-2.1765,-2.1783,-2.1862,-2.1865,-2.1803,-2.1806,-2.1808,-2.1809,0,0,0,0,0,0,0,-2.1564,-2.1575,-2.1686,-2.1659,-2.166,-2.1655,-2.1663,-2.1715,-2.1737,-2.1695,-2.1694,-2.1703,-2.1759,-2.1778,-2.1784,-2.1866,-2.1802,-2.1807,-2.181,-2.1812,-2.2007,-2.2009,0,0,0,0,0,0,-2.1558,-2.1571,-2.1684,-2.1688,-2.1608,-2.166,-2.1668,-2.1696,-2.1736,-2.174,-2.1704,-2.1701,-2.1771,-2.1779,-2.1787,-2.1872,-2.1808,-2.1812,-2.1815,-2.2005,-2.2007,-2.201,0,0,0,0,0,0,-2.1555,-2.1569,-2.1681,-2.1629,-2.1643,-2.1665,-2.1696,-2.1699,-2.1718,-2.1743,-2.1747,-2.172,-2.177,-2.178,-2.1841,-2.1875,-2.1814,-2.1819,-2.2002,-2.2005,-2.2009,-2.2044,0,0,0,0,0,0,-2.1551,-2.1568,-2.1595,-2.163,-2.1646,-2.1734,-2.1698,-2.1702,-2.1727,-2.1724,-2.1759,-2.1763,-2.1769,-2.1834,-2.1846,-2.188,-2.1822,-2.1999,-2.2003,-2.2008,-2.204,-2.2049,-2.2056,0,0,0,0,0,-2.1545,-2.1602,-2.1597,-2.1611,-2.1681,-2.1736,-2.1745,-2.1751,-2.1729,-2.1757,-2.1773,-2.1762,-2.1869,-2.184,-2.1853,-2.189,-2.1997,-2.2002,-2.2007,-2.2037,-2.2047,-2.2056,0,0,0,0,0,0,-2.157,-2.1607,-2.1601,-2.1671,-2.1701,-2.1733,-2.1768,-2.1762,-2.1798,-2.1794,-2.1799,-2.1807,-2.187,-2.1886,-2.1853,-2.196,-2.193,-2.1938,-2.1948,-2.1958,-2.1965,-2.196,-2.1826,0,0,0,0,0,-2.1584,-2.1627,-2.1656,-2.1715,-2.173,-2.1747,-2.1771,-2.1773,-2.1804,-2.1816,-2.1837,-2.1866,-2.1907,-2.1933,-2.1971,-2.2043,-2.205,-2.2074,-2.2082,-2.2088,-2.2095,-2.2133,-2.2144,-2.2027,-2.2027,-2.2027,0,0,-2.1613,-2.1638,-2.1664,-2.172,-2.1744,-2.1787,-2.1757,-2.1804,-2.1836,-2.1823,-2.1882,-2.1898,-2.1931,-2.1998,-2.2028,-2.2013,-2.2129,-2.2095,-2.2099,-2.2103,-2.2139,-2.215,-2.216,-2.203,-2.203,-2.2029,0,0,-2.1687,-2.1711,-2.1762,-2.1786,-2.1822,-2.1832,-2.1845,-2.1878,-2.1889,-2.1948,-2.1939,-2.1976,-2.2046,-2.207,-2.2091,-2.2174,-2.2165,-2.2187,-2.2227,-2.2264,-2.2273,-2.2282,-2.2311,-2.2321,-2.2193,-2.2194,-2.2194,0,-2.1718,-2.1783,-2.1789,-2.1837,-2.1861,-2.1852,-2.1904,-2.1927,-2.1973,-2.199,-2.1973,-2.2059,-2.2081,-2.2153,-2.2173,-2.2191,-2.2204,-2.2183,-2.2272,-2.228,-2.2288,-2.2315,-2.2326,-2.2196,-2.2196,-2.2195,-2.2195,0,-2.1819,-2.1864,-2.1901,-2.1947,-2.1975,-2.2025,-2.2038,-2.2066,-2.2066,-2.2078,-2.2138,-2.2164,-2.2207,-2.2225,-2.2225,-2.2296,-2.2286,-2.227,-2.2239,-2.2301,-2.2327,-2.2338,-2.2199,-2.2198,-2.2198,-2.2197,0,0,-2.191,-2.1959,-2.1972,-2.1992,-2.2031,-2.2066,-2.2115,-2.2158,-2.2181,-2.2214,-2.2254,-2.2313,-2.2299,-2.2323,-2.2326,-2.2359,-2.2422,-2.2339,-2.234,-2.2353,-2.2502,-2.2513,-2.2525,-2.2416,-2.2418,-2.242,-2.2499,0,-2.1987,-2.2074,-2.2081,-2.2158,-2.22,-2.2192,-2.2234,-2.2262,-2.2275,-2.2311,-2.2325,-2.2367,-2.2345,-2.236,-2.2392,-2.2407,-2.2452,-2.2402,-2.2453,-2.2455,-2.2445,-2.2539,-2.2551,-2.2624,-2.2509,-2.2511,-2.2512,0,-2.2089,-2.2124,-2.2206,-2.2239,-2.2257,-2.2295,-2.2334,-2.237,-2.2401,-2.2408,-2.2435,-2.2433,-2.2482,-2.245,-2.2518,-2.2484,-2.2505,-2.2516,-2.2519,-2.2523,-2.2487,-2.2545,-2.2647,-2.2658,-2.2528,-2.2527,-2.2526,0,-2.2146,-2.2215,-2.2273,-2.2291,-2.233,-2.2357,-2.2375,-2.2404,-2.2429,-2.2464,-2.248,-2.252,-2.2542,-2.2572,-2.258,-2.2556,-2.2648,-2.2616,-2.2654,-2.2654,-2.2674,-2.2672,-2.278,-2.2688,-2.2688,-2.2688,-2.2688,0,-2.2231,-2.2282,-2.2299,-2.2335,-2.2391,-2.2398,-2.2453,-2.2469,-2.2495,-2.2533,-2.2528,-2.2564,-2.2573,-2.261,-2.2617,-2.2671,-2.2681,-2.2688,-2.2689,-2.2688,-2.2687,-2.2702,-2.2697,-2.2691,-2.269,-2.269,-2.2689,0,-2.2305,-2.2319,-2.2381,-2.2414,-2.2423,-2.2463,-2.2491,-2.2524,-2.2537,-2.2585,-2.2596,-2.2615,-2.2659,-2.267,-2.2722,-2.2727,-2.2791,-2.2788,-2.2781,-2.278,-2.2818,-2.2814,-2.2938,-2.2954,-2.2853,-2.2854,-2.2854,0,-2.2358,-2.2397,-2.2434,-2.2459,-2.2478,-2.2519,-2.2545,-2.2553,-2.258,-2.2619,-2.2648,-2.2691,-2.2725,-2.2795,-2.2813,-2.2852,-2.285,-2.289,-2.2855,-2.2853,-2.285,-2.2847,-2.2851,-2.2897,-2.2898,-2.2899,-2.29,0,-2.245,-2.2455,-2.2493,-2.2534,-2.2565,-2.2597,-2.2628,-2.2649,-2.2661,-2.2692,-2.2736,-2.2763,-2.2817,-2.2859,-2.2899,-2.2916,-2.291,-2.291,-2.2921,-2.292,-2.2915,-2.2918,-2.2798,-2.2907,-2.2907,-2.2906,-2.2906,-2.2905,-2.2515,-2.2549,-2.258,-2.2622,-2.2646,-2.2675,-2.2709,-2.2725,-2.2763,-2.2807,-2.281,-2.2858,-2.2888,-2.2941,-2.296,-2.2998,-2.2986,-2.3001,-2.3005,-2.3009,-2.3012,-2.2909,-2.3005,-2.3005,-2.3005,-2.3005,-2.3004,0,-2.2606,-2.2626,-2.2665,-2.2709,-2.2742,-2.2734,-2.2767,-2.2795,-2.2838,-2.2867,-2.2901,-2.2952,-2.2993,-2.3015,-2.3055,-2.3081,-2.3079,-2.3092,-2.3089,-2.3093,-2.3021,-2.3007,-2.3092,-2.3092,-2.3092,-2.3092,-2.3092,-2.3092,-2.2658,-2.2715,-2.2723,-2.2792,-2.2811,-2.2859,-2.2879,-2.2905,-2.2928,-2.2985,-2.302,-2.3034,-2.3059,-2.3102,-2.3139,-2.3144,-2.3159,-2.3173,-2.3176,-2.3108,-2.3099,-2.309,-2.3077,-2.3176,-2.3176,-2.3246,-2.3246,-2.3247]}]]